Weather History for Pendleton, OR

Change the Weather History Date:

Friday, February 22, 2013

  Actual Average Record
Temperature  
Mean Temperature 40 °F 40 °F  
Max Temperature 47 °F 48 °F 68 °F (2002)
Min Temperature 33 °F 31 °F 5 °F (1894)
Degree Days  
Heating Degree Days 25 25  
Month to date heating degree days 566 594  
Since 1 July heating degree days 3588 3752  
Cooling Degree Days 0 0  
Month to date cooling degree days 0 0  
Year to date cooling degree days 0 0  
Moisture  
Dew Point 33 °F    
Average Humidity 70    
Maximum Humidity 86    
Minimum Humidity 53    
Precipitation  
Precipitation 0.10 in 0.04 in 0.60 in (1922)
Month to date precipitation 0.11 0.86  
Year to date precipitation 1.09 2.29  
Snow  
Snow 0.00 in 0.20 in 2.70 in (1957)
Month to date snowfall 0.0 2.8  
Year to date snowfall 0.1 6.5  
Since 1 July snowfall 1.9 14.0  
Snow Depth 0.00 in    
Sea Level Pressure  
Sea Level Pressure 29.91 in    
Wind  
Wind Speed 14 mph (SSW)    
Max Wind Speed 33 mph    
Max Gust Speed 39 mph    
Visibility 10 miles    
Events Rain    
T = Trace of Precipitation, MM = Missing Value Source: NWS Daily Summary

Daily Weather History Graph

Daily Weather History Graph

Search for Another Location

Airport:

Trip Planner

Search our weather history database for the weather conditions in past years. The results will help you decide how hot, cold, wet, or windy it might be!

Date:

Astronomy

Feb. 22, 2013 Rise Set
Actual Time 6:45 AM PST 5:32 PM PST
Civil Twilight 6:15 AM PST 6:02 PM PST
Nautical Twilight 5:40 AM PST 6:37 PM PST
Astronomical Twilight 5:06 AM PST 7:11 PM PST
Moon 2:43 PM PST (2/22) 4:40 AM PST (2/22)
Length of Visible Light 11h 47m
Length of Day
10h 47m
Waxing Gibbous, 91% of the Moon is Illuminated
Feb 22
Waxing Gibbous
Feb 25
Full
Mar 4
Last Quarter
Mar 11
New
Mar 19
First Quarter

Hourly Weather History & Observations

Time (PST) Temp. Windchill Dew Point Humidity Pressure Visibility Wind Dir Wind Speed Gust Speed Precip Events Conditions
12:53 AM 35.1 °F 29.3 °F 28.0 °F 76% 30.05 in 10.0 mi South 6.9 mph - N/A   Clear
1:53 AM 34.0 °F 27.2 °F 28.0 °F 79% 30.05 in 10.0 mi SSE 8.1 mph - N/A   Clear
2:53 AM 36.0 °F 29.6 °F 28.9 °F 76% 30.04 in 10.0 mi SW 8.1 mph - N/A   Mostly Cloudy
3:53 AM 39.0 °F 30.6 °F 28.9 °F 67% 30.02 in 10.0 mi WSW 15.0 mph - N/A   Overcast
4:53 AM 39.9 °F 32.1 °F 28.9 °F 65% 30.04 in 10.0 mi WSW 13.8 mph - N/A   Overcast
5:53 AM 39.9 °F 34.5 °F 28.0 °F 63% 30.04 in 10.0 mi SW 8.1 mph - N/A   Overcast
6:53 AM 41.0 °F 33.5 °F 28.0 °F 60% 30.02 in 10.0 mi SW 13.8 mph - N/A   Overcast
7:53 AM 39.0 °F 32.8 °F 30.0 °F 70% 30.03 in 10.0 mi SSE 9.2 mph - N/A   Overcast
8:53 AM 39.9 °F 35.8 °F 30.9 °F 70% 30.00 in 10.0 mi South 5.8 mph - N/A   Overcast
9:53 AM 44.1 °F 41.5 °F 32.0 °F 63% 29.96 in 10.0 mi South 4.6 mph - N/A   Overcast
10:53 AM 46.0 °F - 30.9 °F 56% 29.95 in 10.0 mi North - - N/A   Overcast
11:42 AM 43.0 °F 36.4 °F 37.0 °F 80% 29.93 in 10.0 mi South 12.7 mph - 0.03 in Rain Light Rain
11:53 AM 41.0 °F 32.8 °F 37.0 °F 86% 29.94 in 8.0 mi South 16.1 mph 26.5 mph 0.03 in Rain Light Rain
12:36 PM 41.0 °F 35.8 °F 37.0 °F 86% 29.88 in 10.0 mi SSE 8.1 mph - 0.05 in Rain Light Rain
12:53 PM 41.0 °F 32.8 °F 37.0 °F 86% 29.86 in 10.0 mi SSE 16.1 mph 23.0 mph 0.06 in Rain Light Rain
1:53 PM 44.1 °F 36.5 °F 36.0 °F 73% 29.81 in 10.0 mi SSW 17.3 mph 26.5 mph 0.00 in   Overcast
2:53 PM 45.0 °F 39.7 °F 36.0 °F 71% 29.82 in 10.0 mi SSW 10.4 mph - N/A   Overcast
3:53 PM 45.0 °F 37.1 °F 37.9 °F 76% 29.82 in 10.0 mi SW 19.6 mph - 0.00 in Rain Light Rain
4:53 PM 44.1 °F 38.1 °F 37.0 °F 76% 29.78 in 10.0 mi SSW 11.5 mph - 0.01 in   Overcast
5:53 PM 45.0 °F 37.6 °F 35.1 °F 68% 29.78 in 10.0 mi SSW 17.3 mph - N/A   Overcast
6:53 PM 44.1 °F 38.6 °F 36.0 °F 73% 29.77 in 10.0 mi SSW 10.4 mph 21.9 mph N/A   Overcast
7:14 PM 46.9 °F - 34.0 °F 61% 29.77 in 10.0 mi WSW 20.7 mph 31.1 mph N/A   Overcast
7:53 PM 44.1 °F 37.4 °F 35.1 °F 71% 29.78 in 10.0 mi West 13.8 mph - 0.00 in   Overcast
8:53 PM 41.0 °F 34.3 °F 36.0 °F 82% 29.79 in 10.0 mi West 11.5 mph - N/A   Overcast
9:53 PM 41.0 °F 30.0 °F 30.0 °F 65% 29.82 in 10.0 mi West 28.8 mph 33.4 mph N/A   Clear
10:53 PM 37.9 °F 25.9 °F 28.9 °F 70% 29.84 in 10.0 mi WSW 28.8 mph 34.5 mph N/A   Mostly Cloudy
11:53 PM 37.0 °F 26.4 °F 28.0 °F 70% 29.89 in 10.0 mi WSW 20.7 mph 32.2 mph N/A   Clear